[[{"header":{"parameterUnit":"m.s-1","parameterCategory":1,"la1":30.2991,"la2":30.254,"lo1":-89.0895,"lo2":-89.0444,"dy":0.0017,"dx":0.0017,"nx":28,"ny":28,"refTime":"2025-06-04T03:00:00:Z","depth":0,"parameterNumber":2,"parameterNumberName":"U-component_of_WINDS"},"data":[0,0,0,0,0,0,0,0,0,0,0,0,0,0,0,0,0,0,0,0,0,0,0,0,0,0,0,0,0,0,0,0,0,0,0,0,0,0,0,0,0,0,0,0,0,0,0,0,0,0,0,0,0,0,0,0,0,0,-5.3963,-5.3963,0,-5.3974,-5.3974,-5.3974,-5.3874,-5.3871,-5.3869,-5.3866,-5.3876,-5.3878,-5.3881,0,0,0,0,0,0,0,0,0,0,0,0,0,-5.3856,-5.3859,-5.3963,-5.3963,-5.3963,-5.3974,-5.3974,-5.3974,-5.3875,-5.3871,-5.3868,-5.3865,-5.3875,-5.3878,-5.3882,0,0,0,0,0,0,0,0,0,0,0,0,0,-5.3888,-5.386,-5.3963,-5.3915,-5.3911,-5.3974,-5.3974,-5.3974,-5.3875,-5.3871,-5.3867,-5.3863,-5.3874,-5.3878,-5.3882,-5.3991,0,0,-5.3895,-5.3897,0,0,0,0,0,0,0,0,-5.3887,-5.3892,-5.3922,-5.3919,-5.3914,-5.3918,-5.3939,-5.3979,-5.3876,-5.3889,-5.3866,-5.3861,-5.3893,-5.3896,-5.3907,-5.3991,-5.3992,-5.3895,-5.3898,-5.39,-5.3901,0,0,0,0,0,0,0,-5.3885,-5.3891,-5.3967,-5.3923,-5.3918,-5.3893,-5.3893,-5.3947,-5.3914,-5.3887,-5.388,-5.3883,-5.389,-5.3903,-5.3906,-5.3992,-5.3895,-5.3899,-5.3902,-5.3903,-5.4165,-5.4169,0,0,0,0,0,0,-5.3889,-5.389,-5.3967,-5.3967,-5.389,-5.3898,-5.3898,-5.3921,-5.3913,-5.3908,-5.3886,-5.3878,-5.3898,-5.3901,-5.3906,-5.4031,-5.39,-5.3904,-5.3906,-5.4161,-5.4166,-5.4171,0,0,0,0,0,0,-5.3887,-5.3897,-5.3966,-5.3927,-5.3934,-5.3904,-5.3931,-5.3923,-5.3936,-5.3912,-5.3906,-5.3905,-5.3894,-5.39,-5.397,-5.403,-5.3906,-5.3909,-5.4155,-5.4162,-5.4168,-5.4283,0,0,0,0,0,0,-5.3884,-5.3897,-5.3938,-5.3929,-5.3936,-5.4031,-5.3935,-5.3927,-5.3943,-5.3933,-5.3928,-5.3924,-5.3892,-5.3964,-5.3974,-5.4033,-5.3913,-5.415,-5.4158,-5.4166,-5.4274,-5.4293,-5.4309,0,0,0,0,0,-5.3881,-5.397,-5.394,-5.395,-5.3987,-5.4034,-5.4039,-5.4,-5.3949,-5.3989,-5.3974,-5.3924,-5.4023,-5.3972,-5.3983,-5.4044,-5.4146,-5.4156,-5.4166,-5.4266,-5.4289,-5.4308,0,0,0,0,0,0,-5.3986,-5.3967,-5.3935,-5.4023,-5.4031,-5.4017,-5.4067,-5.4027,-5.4049,-5.4038,-5.399,-5.3989,-5.4067,-5.4063,-5.4007,-5.4148,-5.4075,-5.4088,-5.4148,-5.4169,-5.4187,-5.4185,-5.3916,0,0,0,0,0,-5.4019,-5.406,-5.4041,-5.4121,-5.4127,-5.4097,-5.4116,-5.4086,-5.4092,-5.4095,-5.4085,-5.4093,-5.4125,-5.4148,-5.4177,-5.4274,-5.427,-5.4321,-5.4339,-5.4354,-5.4364,-5.4413,-5.4435,-5.4203,-5.4203,-5.4203,0,0,-5.4088,-5.4084,-5.4112,-5.4142,-5.4145,-5.4187,-5.41,-5.4149,-5.4179,-5.4102,-5.4167,-5.4161,-5.4166,-5.425,-5.4286,-5.4249,-5.4428,-5.4366,-5.4378,-5.438,-5.4426,-5.4448,-5.4467,-5.421,-5.4209,-5.4208,0,0,-5.4235,-5.4237,-5.4302,-5.4307,-5.4313,-5.4292,-5.4309,-5.4302,-5.4294,-5.4359,-5.4302,-5.4338,-5.4396,-5.4401,-5.4412,-5.4563,-5.4517,-5.4575,-5.4665,-5.4714,-5.4732,-5.4748,-5.48,-5.4819,-5.4586,-5.4586,-5.4586,0,-5.432,-5.4381,-5.4341,-5.4393,-5.4408,-5.4342,-5.4407,-5.4414,-5.4429,-5.444,-5.4399,-5.4469,-5.4468,-5.4552,-5.4589,-5.4601,-5.4616,-5.4573,-5.4733,-5.4749,-5.4763,-5.4812,-5.4831,-5.4593,-5.4592,-5.4591,-5.4591,0,-5.4484,-5.4528,-5.4581,-5.4596,-5.4617,-5.4676,-5.4645,-5.4671,-5.464,-5.4624,-5.4691,-5.4688,-5.4715,-5.4733,-5.4704,-5.4813,-5.4789,-5.4742,-5.4666,-5.4792,-5.4837,-5.4856,-5.4602,-5.46,-5.4598,-5.4596,0,0,-5.4694,-5.4688,-5.4708,-5.4714,-5.4716,-5.4749,-5.4805,-5.4832,-5.4854,-5.4868,-5.4912,-5.4963,-5.4919,-5.4932,-5.4903,-5.4946,-5.5063,-5.4893,-5.4892,-5.4922,-5.5181,-5.5214,-5.5237,-5.5034,-5.5038,-5.5041,-5.518,0,-5.4835,-5.4929,-5.4896,-5.4992,-5.5031,-5.497,-5.5019,-5.5025,-5.5013,-5.5044,-5.503,-5.5066,-5.5007,-5.5014,-5.5055,-5.5041,-5.5114,-5.5031,-5.5073,-5.5076,-5.507,-5.526,-5.5296,-5.5427,-5.5197,-5.52,-5.5202,0,-5.5011,-5.5031,-5.5132,-5.5127,-5.5142,-5.5186,-5.5207,-5.5239,-5.5245,-5.5233,-5.5248,-5.521,-5.5264,-5.5192,-5.5265,-5.5209,-5.5225,-5.5221,-5.5226,-5.5225,-5.5144,-5.5262,-5.5468,-5.5487,-5.523,-5.5228,-5.5226,0,-5.515,-5.5203,-5.5269,-5.5277,-5.5274,-5.5306,-5.5307,-5.5309,-5.5327,-5.5346,-5.5357,-5.5383,-5.5396,-5.5417,-5.5387,-5.5338,-5.5464,-5.539,-5.5454,-5.5455,-5.548,-5.5478,-5.5688,-5.5497,-5.5496,-5.5496,-5.5496,0,-5.5308,-5.5372,-5.5332,-5.5372,-5.5442,-5.5403,-5.5472,-5.5466,-5.5469,-5.5507,-5.5457,-5.5494,-5.5453,-5.5486,-5.5463,-5.5526,-5.5533,-5.5524,-5.5516,-5.5526,-5.5527,-5.5534,-5.5522,-5.5501,-5.55,-5.5499,-5.5498,0,-5.5474,-5.545,-5.5518,-5.551,-5.551,-5.5561,-5.5554,-5.5591,-5.5576,-5.5625,-5.5634,-5.561,-5.5646,-5.5619,-5.5655,-5.564,-5.5722,-5.5704,-5.572,-5.5713,-5.5778,-5.5771,-5.5997,-5.6023,-5.5818,-5.582,-5.5822,0,-5.5575,-5.5622,-5.5619,-5.5641,-5.5645,-5.5681,-5.5699,-5.5664,-5.5685,-5.5697,-5.5732,-5.5765,-5.5788,-5.5849,-5.5834,-5.5862,-5.5841,-5.5919,-5.5845,-5.5853,-5.5839,-5.5835,-5.5838,-5.5932,-5.5935,-5.5937,-5.5938,0,-5.5755,-5.5742,-5.577,-5.5795,-5.5818,-5.5836,-5.585,-5.5871,-5.5835,-5.5862,-5.5898,-5.5917,-5.5954,-5.5985,-5.6008,-5.6007,-5.5967,-5.5962,-5.5978,-5.5987,-5.5993,-5.5988,-5.5757,-5.5956,-5.5954,-5.5953,-5.5952,-5.5951,-5.5889,-5.5928,-5.5932,-5.5965,-5.5972,-5.5987,-5.6021,-5.6011,-5.6041,-5.6068,-5.6046,-5.6089,-5.6095,-5.6121,-5.6126,-5.6159,-5.6127,-5.615,-5.6156,-5.6161,-5.6169,-5.5991,-5.6163,-5.6163,-5.6162,-5.6162,-5.6162,0,-5.6065,-5.6065,-5.6096,-5.6117,-5.6144,-5.6105,-5.6118,-5.6143,-5.6181,-5.6191,-5.6215,-5.6257,-5.6288,-5.6278,-5.6305,-5.6334,-5.6316,-5.6342,-5.6337,-5.6338,-5.6197,-5.618,-5.6356,-5.6356,-5.6356,-5.6356,-5.6356,-5.6356,-5.6159,-5.6221,-5.6209,-5.6275,-5.6274,-5.6316,-5.6327,-5.634,-5.6347,-5.6396,-5.6421,-5.6415,-5.6416,-5.6443,-5.647,-5.6466,-5.6477,-5.651,-5.6499,-5.6367,-5.6348,-5.6329,-5.6312,-5.6513,-5.6513,-5.6636,-5.6637,-5.6638]},{"header":{"parameterUnit":"m.s-1","parameterCategory":1,"la1":30.2991,"la2":30.254,"lo1":-89.0895,"lo2":-89.0444,"dy":0.0017,"dx":0.0017,"nx":28,"ny":28,"refTime":"2025-06-04T03:00:00:Z","depth":0,"parameterNumber":3,"parameterNumberName":"V-component_of_WINDS"},"data":[0,0,0,0,0,0,0,0,0,0,0,0,0,0,0,0,0,0,0,0,0,0,0,0,0,0,0,0,0,0,0,0,0,0,0,0,0,0,0,0,0,0,0,0,0,0,0,0,0,0,0,0,0,0,0,0,0,0,2.3167,2.3167,0,2.3196,2.3196,2.3197,2.3218,2.3219,2.3219,2.3219,2.3246,2.3247,2.3247,0,0,0,0,0,0,0,0,0,0,0,0,0,2.3129,2.3129,2.3167,2.3167,2.3168,2.3196,2.3196,2.3197,2.3218,2.3219,2.3219,2.3219,2.3246,2.3247,2.3247,0,0,0,0,0,0,0,0,0,0,0,0,0,2.315,2.3129,2.3167,2.3182,2.3184,2.3196,2.3196,2.3197,2.3218,2.3219,2.3219,2.3219,2.3246,2.3247,2.3247,2.3246,0,0,2.325,2.325,0,0,0,0,0,0,0,0,2.3149,2.3151,2.3179,2.3181,2.3183,2.3204,2.3193,2.3213,2.3218,2.3205,2.3219,2.3219,2.3232,2.3234,2.3238,2.3247,2.3249,2.325,2.325,2.3251,2.3251,0,0,0,0,0,0,0,2.3147,2.315,2.3178,2.318,2.3182,2.3187,2.319,2.3197,2.3216,2.3206,2.3208,2.3211,2.3233,2.3238,2.3239,2.3249,2.325,2.3251,2.3251,2.3251,2.326,2.3259,0,0,0,0,0,0,2.3144,2.3149,2.3177,2.3179,2.3166,2.3187,2.3191,2.3197,2.3216,2.322,2.3211,2.3212,2.3236,2.3238,2.324,2.3241,2.3251,2.3251,2.3252,2.326,2.326,2.3259,0,0,0,0,0,0,2.3143,2.3146,2.3176,2.3165,2.3169,2.3188,2.3194,2.3197,2.3202,2.322,2.3223,2.3212,2.3236,2.3239,2.3245,2.3242,2.3252,2.3253,2.326,2.326,2.326,2.3241,0,0,0,0,0,0,2.3142,2.3146,2.3146,2.3164,2.3169,2.3181,2.3194,2.3198,2.3204,2.3206,2.3222,2.3225,2.3237,2.3244,2.3246,2.3243,2.3253,2.3261,2.326,2.326,2.3242,2.324,2.3239,0,0,0,0,0,2.314,2.3138,2.3145,2.3149,2.317,2.3181,2.3183,2.3198,2.3203,2.3203,2.3215,2.3225,2.3242,2.3244,2.3247,2.3244,2.3261,2.326,2.326,2.3243,2.3241,2.3239,0,0,0,0,0,0,2.3117,2.3141,2.3149,2.3153,2.3165,2.3184,2.3184,2.3195,2.3204,2.3205,2.3222,2.3225,2.3229,2.3238,2.3239,2.3245,2.3253,2.3253,2.3239,2.3237,2.3235,2.3233,2.3254,0,0,0,0,0,2.3113,2.312,2.314,2.3142,2.3148,2.3165,2.317,2.3181,2.3193,2.3198,2.321,2.322,2.3229,2.3233,2.3242,2.3244,2.3248,2.3244,2.3242,2.324,2.324,2.3242,2.3241,2.3258,2.3258,2.3258,0,0,2.3103,2.3117,2.3121,2.3138,2.3148,2.3155,2.3169,2.3175,2.3181,2.3198,2.3205,2.3214,2.3228,2.3232,2.3234,2.3239,2.3236,2.324,2.3238,2.3239,2.3241,2.324,2.3238,2.3257,2.3257,2.3257,0,0,2.309,2.3101,2.3104,2.3115,2.3131,2.3143,2.3143,2.3162,2.3169,2.3176,2.319,2.3196,2.321,2.3219,2.3225,2.3217,2.3227,2.322,2.321,2.3212,2.3211,2.321,2.3207,2.3206,2.3219,2.3219,2.3219,0,2.3075,2.3087,2.3104,2.3111,2.3118,2.3136,2.314,2.3148,2.3166,2.317,2.3175,2.3194,2.3204,2.3211,2.3209,2.3214,2.3215,2.3217,2.321,2.3209,2.3208,2.3206,2.3205,2.3218,2.3218,2.3218,2.3219,0,2.3069,2.3077,2.3078,2.3096,2.3104,2.3108,2.3126,2.3132,2.3142,2.3153,2.3161,2.3174,2.3186,2.3188,2.3197,2.3197,2.3199,2.3207,2.3215,2.3205,2.3203,2.3203,2.3217,2.3217,2.3217,2.3218,0,0,2.304,2.3069,2.3069,2.3078,2.3098,2.3104,2.311,2.3123,2.3127,2.3139,2.3144,2.3156,2.3164,2.3172,2.3182,2.3184,2.3178,2.3192,2.3192,2.3189,2.3178,2.3172,2.3171,2.3184,2.3184,2.3184,2.3177,0,2.3029,2.3042,2.3058,2.3065,2.3073,2.3091,2.3096,2.3109,2.312,2.3128,2.314,2.3148,2.3158,2.3163,2.3166,2.3178,2.3176,2.3179,2.3189,2.3189,2.3185,2.317,2.3163,2.3156,2.3176,2.3176,2.3176,0,2.3018,2.3031,2.3038,2.3059,2.3063,2.3068,2.3081,2.3089,2.3104,2.3112,2.3121,2.3133,2.314,2.3148,2.3158,2.316,2.3165,2.3172,2.3172,2.3173,2.3182,2.317,2.3154,2.3152,2.3175,2.3175,2.3175,0,2.2996,2.3015,2.3023,2.303,2.3054,2.3057,2.3067,2.3082,2.3089,2.3101,2.3106,2.3118,2.3124,2.3133,2.3149,2.3153,2.3157,2.3166,2.3163,2.3163,2.3163,2.3162,2.3146,2.3167,2.3167,2.3167,2.3167,0,2.2982,2.2986,2.3013,2.3018,2.3023,2.3042,2.3047,2.3058,2.3072,2.3079,2.3095,2.3101,2.3121,2.3129,2.3141,2.3148,2.315,2.3157,2.316,2.3155,2.3154,2.3158,2.3159,2.3166,2.3166,2.3166,2.3167,0,2.2958,2.2976,2.2986,2.3009,2.3015,2.3018,2.3037,2.3042,2.3055,2.3064,2.3067,2.3086,2.3097,2.3114,2.3128,2.3137,2.3141,2.3146,2.3136,2.3138,2.3135,2.3135,2.312,2.3119,2.314,2.314,2.314,0,2.2947,2.2951,2.2976,2.2982,2.2992,2.3002,2.301,2.3029,2.3037,2.3055,2.3058,2.307,2.3081,2.3097,2.3113,2.3125,2.313,2.3124,2.3132,2.3127,2.313,2.3129,2.313,2.3122,2.3122,2.3121,2.3121,0,2.2927,2.2937,2.2948,2.2963,2.2973,2.2985,2.2998,2.3003,2.3025,2.3032,2.3045,2.3053,2.307,2.3081,2.3096,2.3106,2.3117,2.3119,2.3119,2.3114,2.3108,2.3111,2.3131,2.3119,2.3119,2.3119,2.3119,2.312,2.2909,2.2914,2.2933,2.2945,2.2958,2.297,2.2976,2.2991,2.3002,2.3018,2.3028,2.304,2.3056,2.3076,2.3086,2.3095,2.3099,2.3099,2.3099,2.3099,2.3097,2.3107,2.3097,2.3097,2.3097,2.3097,2.3097,0,2.289,2.2903,2.2915,2.2934,2.2944,2.2956,2.2971,2.2979,2.2989,2.3003,2.3014,2.3029,2.3041,2.3058,2.3071,2.3075,2.3081,2.3078,2.3077,2.3079,2.3092,2.3091,2.3073,2.3073,2.3073,2.3073,2.3073,2.3073,2.2881,2.289,2.2902,2.2918,2.2931,2.2943,2.2951,2.2963,2.2975,2.299,2.3001,2.3013,2.3028,2.3043,2.3055,2.3059,2.3063,2.3059,2.3065,2.3076,2.3078,2.308,2.3079,2.306,2.306,2.3052,2.3052,2.3052]}]]